TimeHST,TemperatureF,Dew PointF,Humidity,Sea Level PressureIn,VisibilityMPH,Wind Direction,Wind SpeedMPH,Gust SpeedMPH,PrecipitationIn,Events,Conditions,WindDirDegrees,DateUTC
12:54 AM,73.0,69.1,87,30.06,10.0,NE,18.4,-,0.00,,Mostly Cloudy,50,2012-09-25 10:54:00
1:54 AM,73.0,69.1,87,30.04,10.0,NE,11.5,-,0.00,,Partly Cloudy,50,2012-09-25 11:54:00
2:54 AM,73.0,70.0,90,30.02,10.0,NE,13.8,19.6,0.00,,Mostly Cloudy,40,2012-09-25 12:54:00
3:54 AM,73.0,69.1,87,30.01,10.0,NE,11.5,-,N/A,,Partly Cloudy,50,2012-09-25 13:54:00
4:54 AM,73.0,69.1,87,30.01,10.0,ENE,9.2,-,N/A,,Clear,60,2012-09-25 14:54:00
5:54 AM,73.0,66.9,81,30.02,10.0,NE,13.8,-,0.00,,Scattered Clouds,50,2012-09-25 15:54:00
6:54 AM,72.0,66.9,84,30.04,10.0,NE,18.4,-,0.00,,Scattered Clouds,50,2012-09-25 16:54:00
7:54 AM,75.9,66.0,71,30.05,10.0,East,12.7,-,N/A,,Scattered Clouds,80,2012-09-25 17:54:00
9:54 AM,82.9,66.9,58,30.05,10.0,ENE,19.6,26.5,N/A,,Partly Cloudy,60,2012-09-25 19:54:00
10:54 AM,82.9,68.0,60,30.04,10.0,ENE,13.8,-,N/A,,Scattered Clouds,60,2012-09-25 20:54:00
10:55 AM,82.9,68.0,60,30.04,10.0,ENE,13.8,-,N/A,,Scattered Clouds,60,2012-09-25 20:55:00
11:54 AM,82.0,66.0,58,30.04,10.0,ENE,18.4,26.5,N/A,,Scattered Clouds,60,2012-09-25 21:54:00
12:54 PM,82.9,66.9,58,30.02,10.0,ENE,20.7,26.5,N/A,,Scattered Clouds,60,2012-09-25 22:54:00
1:54 PM,84.0,66.0,55,30.00,10.0,ENE,19.6,26.5,N/A,,Scattered Clouds,60,2012-09-25 23:54:00
2:54 PM,84.0,66.0,55,29.99,10.0,NE,20.7,29.9,N/A,,Scattered Clouds,50,2012-09-26 00:54:00
3:54 PM,82.0,66.0,58,29.99,10.0,ENE,17.3,29.9,N/A,,Scattered Clouds,70,2012-09-26 01:54:00
4:54 PM,80.1,66.0,62,30.00,10.0,ENE,21.9,26.5,N/A,,Scattered Clouds,70,2012-09-26 02:54:00
5:54 PM,78.1,66.0,66,30.02,10.0,NE,19.6,-,N/A,,Scattered Clouds,50,2012-09-26 03:54:00
6:54 PM,75.0,66.9,76,30.05,10.0,NE,15.0,19.6,N/A,,Scattered Clouds,50,2012-09-26 04:54:00
7:54 PM,75.0,64.9,71,30.07,10.0,ENE,6.9,-,N/A,,Partly Cloudy,60,2012-09-26 05:54:00
8:54 PM,75.0,66.0,73,30.09,10.0,NE,10.4,-,N/A,,Scattered Clouds,40,2012-09-26 06:54:00
9:54 PM,73.9,66.9,79,30.09,10.0,NE,10.4,-,N/A,,Scattered Clouds,40,2012-09-26 07:54:00
10:54 PM,75.0,66.9,76,30.09,10.0,ENE,9.2,-,N/A,,Overcast,70,2012-09-26 08:54:00
11:54 PM,73.9,68.0,82,30.07,10.0,NE,13.8,-,N/A,,Clear,50,2012-09-26 09:54:00